Погода в Хайфоне

Вьетнам     20˚51′14″N   106˚40′15″E
темп.,
°C
ветер,
м/с
пор.,
м/с
влажн.,
%
обл.,
%
осадки,
мм/ч
давл.,
гПа
погр.,
м
6 декабря, вс
вс601:00+15˚ссв22671 0.0 1021156
04:00+14˚с22710 0.0 102085
07:00+15˚ссв22690 0.0 1021133
10:00+20˚св11490 0.0 1023806
13:00+21˚вюв22460 0.0 10191022
16:00+20˚вюв45540 0.0 1017575
19:00+18˚в36710 0.0 1020323
22:00+18˚всв34750 0.0 1021222
7 декабря, пн
пн701:00+17˚св237217 0.0 1021199
04:00+18˚с236494 0.0 1020195
07:00+18˚сз236397 0.0 1022175
10:00+20˚ссз2254100 0.0 1023546
13:00+21˚сз2252100 0.0 1020693
16:00+22˚з015012 0.0 1018802
19:00+19˚юв22646 0.0 1020116
22:00+19˚всв22690 0.0 1022123
8 декабря, вт
вт801:00+17˚с22736 0.0 102168
04:00+17˚с23718 0.0 102176
07:00+18˚ссв226453 0.0 1023138
10:00+21˚с234994 0.0 1023518
13:00+23˚всв124597 0.0 1020850
16:00+23˚ююв325033 0.0 1017658
19:00+19˚юв346816 0.0 1019148
22:00+19˚в23710 0.0 1019138
9 декабря, ср
ср901:00+18˚св237410 0.0 1017119
04:00+17˚св22742 0.0 101799
07:00+17˚св22703 0.0 1018132
10:00+22˚в44520 0.0 1019766
13:00+23˚вюв545130 0.0 1015835
16:00+22˚вюв446028 0.0 1014513
19:00+20˚вюв467615 0.0 1015357
22:00+19˚в35819 0.0 1016254
10 декабря, чт
чт1001:00+19˚св347718 0.0 1015278
04:00+19˚св247480 0.0 1014238
07:00+19˚св247387 0.0 1015269
10:00+21˚св3571100 0.0 1016500
13:00+24˚в336695 0.0 1013794
16:00+22˚в457788 0.0 1012381
19:00+20˚в369067 0.0 1014295
22:00+21˚всв358495 0.0 1015313